FW2736 Weather Reports


Display with metric or nautical units.
time (UTC)temp
F
wind
direction
speed
MPH
gust
MPH
rain 1hr
in
rain 24hr
in
rain mn
in
humidity
%
barometer
mb
20260506085829 51 147 3.0 0.0 0.00 0.02 0.00 81 1019.3
20260506085328 51 291 4.0 0.0 0.00 0.02 0.00 81 1019.3
20260506084827 51 284 0.0 0.0 0.00 0.02 0.00 81 1019.3
20260506084326 51 271 1.0 0.0 0.00 0.02 0.00 81 1019.3
20260506083825 52 163 6.0 0.0 0.00 0.02 0.00 81 1019.3
20260506083325 52 46 6.0 0.0 0.00 0.02 0.00 81 1019.3
20260506082826 52 276 5.0 0.0 0.00 0.02 0.00 81 1019.6
20260506082328 52 87 6.0 0.0 0.00 0.02 0.00 81 1019.6
20260506081827 52 132 5.0 0.0 0.00 0.02 0.00 81 1019.6
20260506081325 52 100 8.0 0.0 0.00 0.02 0.00 81 1019.6
20260506080825 52 112 8.0 0.0 0.00 0.02 0.00 81 1019.6
20260506080328 52 93 4.0 0.0 0.00 0.02 0.00 81 1019.6
20260506073322 53 100 0.0 0.0 0.00 0.03 0.00 79 1019.6
20260506072822 53 122 3.0 0.0 0.00 0.03 0.00 79 1019.6
20260506072324 54 113 9.0 0.0 0.00 0.03 0.00 79 1019.6
20260506071824 54 116 9.0 0.0 0.00 0.03 0.00 79 1019.6
20260506071322 54 122 9.0 0.0 0.00 0.03 0.00 79 1019.6
20260506070824 54 118 10.0 0.0 0.00 0.03 0.00 79 1019.6
20260506070322 54 172 10.0 0.0 0.00 0.03 0.00 79 1019.6
20260506062322 55 89 10.0 0.0 0.00 0.03 0.03 77 1019.3
20260506061824 55 164 10.0 0.0 0.00 0.03 0.03 78 1019.3
20260506061322 55 125 10.0 0.0 0.00 0.03 0.03 78 1019.3
20260506060820 55 155 10.0 0.0 0.00 0.03 0.03 78 1019.3
20260506060323 55 114 10.0 0.0 0.00 0.03 0.03 78 1019.3
20260506051318 56 139 10.0 0.0 0.00 0.03 0.03 75 1018.6
20260506050738 56 197 9.0 0.0 0.00 0.03 0.03 75 1018.6
20260506050319 56 81 9.0 0.0 0.00 0.03 0.03 74 1018.6
20260506044818 56 329 9.0 0.0 0.00 0.03 0.03 73 1018.3
20260506044318 56 125 11.0 0.0 0.00 0.03 0.03 73 1018.3
20260506043739 56 141 10.0 0.0 0.00 0.03 0.03 72 1018.3
20260506043319 56 121 9.0 0.0 0.00 0.03 0.03 72 1018.3
20260506042818 57 346 9.0 0.0 0.00 0.03 0.03 71 1018.3
20260506042315 57 141 9.0 0.0 0.00 0.03 0.03 71 1017.9
20260506041816 57 118 6.0 0.0 0.00 0.03 0.03 70 1017.9
20260506041317 57 343 6.0 0.0 0.00 0.03 0.03 70 1017.6
20260506040816 57 120 6.0 0.0 0.00 0.03 0.03 70 1017.6
20260506040317 57 15 9.0 0.0 0.00 0.03 0.03 69 1017.6
20260506035819 57 114 10.0 0.0 0.00 0.03 0.03 69 1017.6
20260506035316 57 97 9.0 0.0 0.00 0.03 0.03 68 1017.3
20260506034815 57 129 10.0 0.0 0.00 0.03 0.03 68 1017.3
20260506034238 57 156 8.0 0.0 0.00 0.03 0.03 67 1017.3
20260506033817 57 55 8.0 0.0 0.00 0.03 0.03 67 1017.3
20260506033315 57 107 8.0 0.0 0.00 0.03 0.03 67 1017.3
20260506032815 57 337 9.0 0.0 0.00 0.03 0.03 66 1017.3
20260506032315 57 153 11.0 0.0 0.00 0.03 0.03 66 1017.3
20260506031816 58 117 11.0 0.0 0.00 0.03 0.03 65 1017.3
20260506031314 58 122 7.0 0.0 0.00 0.03 0.03 65 1017.3
20260506030814 58 168 9.0 0.0 0.00 0.03 0.03 64 1016.9
20260506030236 58 56 5.0 0.0 0.00 0.03 0.03 63 1016.9
20260506025816 58 106 7.0 0.0 0.00 0.03 0.03 63 1016.9
20260506025313 58 84 4.0 0.0 0.00 0.03 0.03 63 1016.6
20260506024813 58 116 6.0 0.0 0.00 0.03 0.03 63 1016.6
20260506024313 58 160 7.0 0.0 0.00 0.03 0.03 62 1016.6
20260506023813 58 30 8.0 0.0 0.00 0.03 0.03 62 1016.6
20260506023315 58 294 8.0 0.0 0.00 0.03 0.03 62 1016.3
20260506022812 59 153 10.0 0.0 0.00 0.03 0.03 61 1016.3
20260506022313 59 196 9.0 0.0 0.00 0.03 0.03 61 1016.3
20260506021814 59 216 8.0 0.0 0.00 0.03 0.03 61 1016.3
20260506021312 59 117 8.0 0.0 0.00 0.03 0.03 60 1016.3
20260506020737 59 108 8.0 0.0 0.00 0.03 0.03 60 1016.3
20260506020313 59 145 8.0 0.0 0.00 0.03 0.03 60 1015.9
20260506015812 59 109 8.0 0.0 0.00 0.03 0.03 59 1015.9
20260506015312 60 112 8.0 0.0 0.00 0.03 0.03 59 1015.6
20260506014811 60 214 8.0 0.0 0.00 0.03 0.03 59 1015.6
20260506014312 60 340 10.0 0.0 0.00 0.03 0.03 59 1015.6
20260506013813 60 103 9.0 0.0 0.00 0.03 0.03 59 1015.6
20260506013312 60 67 8.0 0.0 0.00 0.03 0.03 59 1015.6
20260506012812 60 122 8.0 0.0 0.00 0.03 0.03 59 1015.6
20260506012315 60 117 8.0 0.0 0.00 0.03 0.03 59 1015.2
20260506011815 60 223 8.0 0.0 0.00 0.03 0.03 59 1015.2
20260506011314 60 151 8.0 0.0 0.00 0.03 0.03 58 1015.2
20260506010810 60 115 9.0 0.0 0.00 0.03 0.03 58 1015.2
20260506010342 60 177 9.0 0.0 0.00 0.03 0.03 58 1015.2
20260506010112 60 238 9.0 0.0 0.00 0.03 0.03 58 1015.2
20260506005314 60 259 8.0 0.0 0.00 0.03 0.03 58 1015.2
20260506004740 60 191 12.0 0.0 0.00 0.03 0.03 58 1015.2
20260506004310 60 123 9.0 0.0 0.00 0.03 0.03 57 1015.2
20260506003812 60 108 11.0 0.0 0.00 0.03 0.03 56 1015.2
20260506003314 61 77 12.0 0.0 0.00 0.03 0.03 56 1015.2
20260506002813 61 167 9.0 0.0 0.00 0.03 0.03 55 1015.2
20260506002239 61 150 9.0 0.0 0.00 0.03 0.03 54 1015.2
20260506001814 61 105 9.0 0.0 0.00 0.03 0.03 54 1015.2
20260506001313 61 116 9.0 0.0 0.00 0.03 0.03 53 1015.2
20260506000742 61 153 11.0 0.0 0.00 0.03 0.03 53 1015.2
20260506000311 62 140 12.0 0.0 0.00 0.03 0.03 53 1015.2
20260505235813 62 144 12.0 0.0 0.00 0.03 0.03 53 1015.2
20260505235311 62 174 11.0 0.0 0.00 0.03 0.03 52 1015.2
20260505234814 62 131 9.0 0.0 0.00 0.03 0.03 52 1015.2
20260505234311 63 154 11.0 0.0 0.00 0.03 0.03 52 1014.9
20260505233811 63 251 11.0 0.0 0.00 0.03 0.03 51 1014.9
20260505233313 64 112 9.0 0.0 0.00 0.03 0.03 51 1014.9
20260505232815 65 250 12.0 0.0 0.00 0.03 0.03 49 1014.9
20260505232309 66 306 12.0 0.0 0.00 0.03 0.03 48 1014.9
20260505231812 67 164 11.0 0.0 0.00 0.03 0.03 46 1014.9
20260505231310 67 230 10.0 0.0 0.00 0.03 0.03 48 1014.9
20260505230811 66 133 8.0 0.0 0.00 0.03 0.03 49 1014.9
20260505230314 65 150 9.0 0.0 0.00 0.03 0.03 50 1015.2
20260505225813 64 72 15.0 0.0 0.00 0.03 0.03 51 1015.2
20260505225311 63 124 15.0 0.0 0.00 0.03 0.03 51 1015.2
20260505224811 63 194 11.0 0.0 0.00 0.03 0.03 51 1015.2
20260505224310 64 166 9.0 0.0 0.00 0.03 0.03 51 1015.2
20260505223811 65 171 9.0 0.0 0.00 0.03 0.03 49 1015.2
20260505223238 65 137 9.0 0.0 0.00 0.03 0.03 50 1015.2
20260505222737 64 75 9.0 0.0 0.00 0.03 0.03 52 1015.2
20260505222310 64 200 9.0 0.0 0.00 0.03 0.03 52 1015.2
20260505221811 63 134 8.0 0.0 0.00 0.03 0.03 53 1015.2
20260505221312 63 203 9.0 0.0 0.00 0.03 0.03 53 1015.2
20260505220812 63 119 10.0 0.0 0.00 0.03 0.03 53 1015.6
20260505220313 63 152 9.0 0.0 0.00 0.03 0.03 53 1015.6
20260505215810 63 125 8.0 0.0 0.00 0.03 0.03 53 1015.6
20260505215312 63 135 7.0 0.0 0.00 0.03 0.03 53 1015.6
20260505214811 63 103 6.0 0.0 0.00 0.03 0.03 53 1015.6
20260505214310 63 170 5.0 0.0 0.00 0.03 0.03 53 1015.6
20260505213738 63 88 7.0 0.0 0.00 0.03 0.03 53 1015.9
20260505213242 63 120 7.0 0.0 0.00 0.03 0.03 53 1015.9
20260505212744 63 176 0.0 0.0 0.00 0.03 0.03 54 1015.9
20260505212243 63 255 1.0 0.0 0.00 0.03 0.03 54 1015.9
20260505211812 63 130 0.0 0.0 0.00 0.03 0.03 53 1016.3
20260505211239 63 133 5.0 0.0 0.00 0.03 0.03 54 1016.3
20260505210739 63 134 6.0 0.0 0.00 0.03 0.03 53 1016.3
20260505210243 63 124 8.0 0.0 0.00 0.03 0.03 53 1016.3
20260505205738 65 135 8.0 0.0 0.00 0.03 0.03 52 1016.3
20260505205241 66 114 1.0 0.0 0.00 0.03 0.03 52 1016.3
20260505204743 65 296 4.0 0.0 0.00 0.03 0.03 53 1016.3
20260505204244 64 106 4.0 0.0 0.00 0.03 0.03 55 1016.3
20260505203738 63 75 0.0 0.0 0.00 0.03 0.03 56 1016.3
20260505203239 62 38 2.0 0.0 0.00 0.03 0.03 57 1016.3
20260505202741 62 52 2.0 0.0 0.00 0.03 0.03 58 1016.3
20260505202237 62 107 5.0 0.0 0.00 0.03 0.03 59 1016.3
20260505201742 62 138 6.0 0.0 0.00 0.03 0.03 58 1016.3
20260505201237 62 106 7.0 0.0 0.00 0.03 0.03 59 1016.3
20260505200740 63 148 5.0 0.0 0.00 0.03 0.03 60 1016.3
20260505200240 62 37 5.0 0.0 0.00 0.03 0.03 60 1016.3
20260505195740 61 18 3.0 0.0 0.00 0.03 0.03 62 1016.3
20260505195238 61 143 3.0 0.0 0.00 0.03 0.03 61 1016.3
20260505194741 62 10 4.0 0.0 0.00 0.03 0.03 61 1016.6
20260505194242 61 96 4.0 0.0 0.00 0.03 0.03 61 1016.6
20260505193742 62 179 6.0 0.0 0.00 0.03 0.03 62 1016.6
20260505193241 62 333 6.0 0.0 0.00 0.03 0.03 63 1016.6
20260505192739 62 120 2.0 0.0 0.00 0.03 0.03 62 1016.6
20260505192236 63 121 6.0 0.0 0.00 0.03 0.03 60 1016.6
20260505191738 63 32 3.0 0.0 0.00 0.03 0.03 61 1016.6
20260505191236 62 141 4.0 0.0 0.00 0.03 0.03 64 1016.6
20260505190742 61 342 4.0 0.0 0.00 0.03 0.03 64 1016.6
20260505190248 61 43 4.0 0.0 0.00 0.03 0.03 64 1016.6
20260505185737 61 299 6.0 0.0 0.00 0.03 0.03 65 1016.6
20260505185242 61 170 6.0 0.0 0.00 0.03 0.03 65 1016.6
20260505184740 61 306 0.0 0.0 0.00 0.03 0.03 62 1016.9
20260505184241 61 35 3.0 0.0 0.00 0.03 0.03 60 1016.9
20260505183738 61 194 3.0 0.0 0.00 0.03 0.03 60 1016.9
20260505183239 61 9 1.0 0.0 0.00 0.03 0.03 62 1016.9
20260505182738 60 37 0.0 0.0 0.00 0.03 0.03 64 1016.9
20260505182241 59 53 0.0 0.0 0.00 0.03 0.03 64 1016.9
20260505181742 58 292 0.0 0.0 0.00 0.03 0.03 65 1016.9
20260505181242 58 294 0.0 0.0 0.00 0.03 0.03 66 1016.9
20260505180739 58 337 0.0 0.0 0.00 0.03 0.03 66 1016.9
20260505180239 58 289 0.0 0.0 0.00 0.03 0.03 67 1016.9
20260505175740 58 287 3.0 0.0 0.00 0.03 0.03 68 1016.9
20260505175238 58 241 4.0 0.0 0.00 0.03 0.03 68 1016.6
20260505174737 58 307 6.0 0.0 0.00 0.03 0.03 67 1016.6
20260505174236 59 300 6.0 0.0 0.00 0.03 0.03 67 1016.6
20260505173812 59 305 6.0 0.0 0.00 0.03 0.03 65 1016.6
20260505173513 59 280 6.0 0.0 0.00 0.03 0.03 66 1016.3
20260505172739 59 321 6.0 0.0 0.00 0.03 0.03 67 1016.3
20260505172236 59 327 7.0 0.0 0.00 0.03 0.03 66 1016.3
20260505171734 59 66 3.0 0.0 0.00 0.03 0.03 65 1016.3
20260505171234 60 12 3.0 0.0 0.00 0.03 0.03 72 1016.3
20260505170742 59 275 0.0 0.0 0.00 0.03 0.03 72 1016.3
20260505170241 58 77 6.0 0.0 0.00 0.03 0.03 71 1016.3
20260505165734 57 347 7.0 0.0 0.00 0.03 0.03 72 1016.3
20260505165235 57 92 6.0 0.0 0.00 0.03 0.03 73 1016.3
20260505164734 58 298 0.0 0.0 0.00 0.03 0.03 74 1016.3
20260505164234 57 296 0.0 0.0 0.00 0.03 0.03 74 1016.3
20260505163734 57 279 5.0 0.0 0.00 0.03 0.03 76 1016.3
20260505163334 57 352 8.0 0.0 0.00 0.03 0.03 78 1016.3
20260505162745 57 345 8.0 0.0 0.00 0.03 0.03 79 1015.9
20260505162234 56 320 7.0 0.0 0.00 0.03 0.03 79 1015.9
20260505161735 56 333 5.0 0.0 0.00 0.03 0.03 79 1015.9
20260505161332 56 254 7.0 0.0 0.00 0.03 0.03 79 1015.9
20260505160733 56 314 9.0 0.0 0.00 0.03 0.03 79 1015.6
20260505160232 56 331 9.0 0.0 0.00 0.03 0.03 78 1015.6
20260505153238 56 150 6.0 0.0 0.01 0.03 0.03 88 1015.6
20260505152742 56 332 5.0 0.0 0.01 0.03 0.03 90 1015.6
20260505152241 56 329 5.0 0.0 0.01 0.03 0.03 91 1015.6
20260505151739 54 347 0.0 0.0 0.01 0.03 0.03 92 1015.6
20260505151241 53 344 0.0 0.0 0.01 0.03 0.03 92 1015.2
20260505150734 53 347 0.0 0.0 0.01 0.03 0.03 92 1015.6
20260505150240 52 31 4.0 0.0 0.01 0.03 0.03 92 1015.6
20260505140236 52 135 0.0 0.0 0.00 0.02 0.02 92 1014.9
20260505130240 52 339 0.0 0.0 0.00 0.02 0.02 91 1014.9
20260505124741 52 339 0.0 0.0 0.00 0.02 0.02 90 1014.6
20260505124236 52 315 0.0 0.0 0.00 0.02 0.02 90 1014.6
20260505123729 52 303 0.0 0.0 0.00 0.02 0.02 90 1014.6
20260505123229 52 342 0.0 0.0 0.00 0.02 0.02 91 1014.6
20260505122728 52 248 0.0 0.0 0.00 0.02 0.02 90 1014.6
20260505122242 52 279 0.0 0.0 0.00 0.02 0.02 91 1014.6
20260505121730 52 263 0.0 0.0 0.00 0.02 0.02 91 1014.6
20260505121227 52 210 0.0 0.0 0.00 0.02 0.02 91 1014.6
20260505120726 52 217 0.0 0.0 0.00 0.02 0.02 91 1014.6
20260505120226 52 241 0.0 0.0 0.00 0.02 0.02 91 1014.6
20260505115729 52 221 0.0 0.0 0.00 0.02 0.02 91 1014.6
20260505115226 52 149 0.0 0.0 0.00 0.02 0.02 91 1014.6
20260505114726 52 185 0.0 0.0 0.00 0.02 0.02 91 1014.6
20260505114227 52 275 0.0 0.0 0.00 0.02 0.02 90 1014.6
20260505113727 52 270 0.0 0.0 0.00 0.02 0.02 90 1014.6
20260505113225 51 208 0.0 0.0 0.00 0.02 0.02 90 1014.9
20260505112726 51 287 0.0 0.0 0.00 0.02 0.02 90 1014.6
20260505112226 51 280 0.0 0.0 0.00 0.02 0.02 90 1014.6
20260505111728 51 292 0.0 0.0 0.00 0.02 0.02 90 1014.9
20260505111225 51 292 0.0 0.0 0.00 0.02 0.02 90 1014.9
20260505110726 51 277 0.0 0.0 0.00 0.02 0.02 90 1014.9
20260505110224 51 291 0.0 0.0 0.00 0.02 0.02 90 1014.9
20260505101725 51 251 0.0 0.0 0.01 0.02 0.02 90 1014.9
20260505101240 51 255 0.0 0.0 0.01 0.02 0.02 89 1014.9
20260505100727 51 243 0.0 0.0 0.01 0.02 0.02 89 1014.9
20260505100226 51 216 0.0 0.0 0.01 0.02 0.02 89 1014.9
20260505095739 51 250 0.0 0.0 0.01 0.02 0.02 89 1014.9
20260505095236 51 168 0.0 0.0 0.01 0.02 0.02 89 1014.9
20260505094723 51 191 0.0 0.0 0.00 0.01 0.01 89 1015.2
20260505094240 51 197 0.0 0.0 0.00 0.01 0.01 89 1015.2
20260505093738 51 154 0.0 0.0 0.00 0.01 0.01 89 1015.2
20260505093241 51 268 0.0 0.0 0.00 0.01 0.01 89 1015.2
20260505092742 51 272 0.0 0.0 0.00 0.01 0.01 89 1015.2
20260505092240 51 177 0.0 0.0 0.00 0.01 0.01 89 1015.2
20260505091736 51 156 0.0 0.0 0.00 0.01 0.01 89 1015.2
20260505091240 51 257 0.0 0.0 0.00 0.01 0.01 89 1015.6
20260505090723 51 164 0.0 0.0 0.00 0.01 0.01 89 1015.6
20260505090235 51 159 0.0 0.0 0.00 0.01 0.01 88 1015.6